Regional Weather Roundup
Issued by NWS

Home | Current Version | Previous Version | Text Only | Print | Product List | Glossary On
Versions: 1 2 3 4 5 6 7 8 9 10 11 12 13 14 15 16 17 18 19 20 21 22 23 24 25 26 27 28 29 30 31 32 33 34 35 36 37 38 39 40 41 42 43 44 45 46 47 48 49 50
000
ASUS43 KTOP 290459
RWRKS

WEATHER ROUNDUP FOR KANSAS
NATIONAL WEATHER SERVICE GOODLAND KS
1200 AM CDT FRI MAY 29 2015

NOTE:  "FAIR" INDICATES FEW OR NO CLOUDS BELOW 12,000 FEET WITH NO
SIGNIFICANT WEATHER AND/OR OBSTRUCTIONS TO VISIBILITY.

KSZ001>006-013>018-027>032-041>047-290600-
NORTHWEST KANSAS

CITY           SKY/WX    TMP DP  RH WIND       PRES   REMARKS
GOODLAND       CLOUDY    53  51  93 SW3       30.01R
HAYS           CLOUDY    61  52  72 SW13G22   29.98R
HILL CITY      CLOUDY    57  55  93 N9        29.93F
RUSSELL        LGT RAIN  61  59  93 S14       29.92R
$$

KSZ061>065-074>080-084>089-290600-
SOUTHWEST KANSAS

CITY           SKY/WX    TMP DP  RH WIND       PRES   REMARKS
DODGE CITY     CLOUDY    59  55  87 N12       29.98R
ELKHART          N/A     58  53  84 NE7         N/A
GARDEN CITY    CLOUDY    57  54  89 SE10      29.96S
GREAT BEND     CLOUDY    61  55  82 W15       29.97S
LIBERAL        CLOUDY    63  52  67 NE17      29.98S
$$

KSZ066>073-081>083-090>101-290600-
SOUTHEAST KANSAS

CITY           SKY/WX    TMP DP  RH WIND       PRES   REMARKS
CHANUTE        MOCLDY    68  66  93 SE8       29.97F
COFFEYVILLE    CLOUDY    70  67  90 SE7       29.98F
HUTCHINSON     CLOUDY    63  58  83 NW5       29.97F
MEDICINE LODGE   N/A     67  58  72 NE12      29.96R
NEWTON         CLOUDY    66  57  72 NW14G22   29.99R
PARSONS        MOCLDY    69  67  93 SE3       29.99F
WICHITA INTL   CLOUDY    70  67  90 SE8       29.95R
WICHITA JABRA  CLOUDY    70  67  90 S9        29.96R
WINFIELD       CLOUDY    71  68  90 SE7       29.95F
$$

KSZ007>012-019>026-033>040-048>060-102>105-290600-
NORTHEAST KANSAS

CITY           SKY/WX    TMP DP  RH WIND       PRES   REMARKS
CONCORDIA      TSTM      62  60  93 W7        29.98S
EMPORIA        CLOUDY    67  65  93 SE8       29.96F
LAWRENCE       MOCLDY    65  63  93 SE7       29.99F
MANHATTAN      CLOUDY    69  64  84 S6        29.96R
OLATHE IND     MOCLDY    65  64  97 SE7       30.00F
OLATHE EXE     MOCLDY    65  63  93 SE7       29.99F
SALINA         CLOUDY    66  58  75 N7        29.96F
TOPEKA BILLARD MOCLDY    66  64  93 SE8       29.97F
TOPEKA FORBES  MOCLDY    66  63  90 SE7       29.97F
$$



USA.gov is the U.S. government's official web portal to all federal, state and local government web resources and services.